Regional Weather Roundup
Issued by NWS

Home | Current Version | Previous Version | Graphics & Text | Print | Product List | Glossary On
Versions: 1 2 3 4 5 6 7 8 9 10 11 12 13 14 15 16 17 18 19 20 21 22 23 24 25 26 27 28 29 30 31 32 33 34 35 36 37 38 39 40 41 42 43 44 45 46 47 48 49 50
187
ASUS44 KMEG 181810
RWRTN
TENNESSEE HOURLY STATE WEATHER ROUNDUP
NATIONAL WEATHER SERVICE MEMPHIS TN
1200 PM CST WED JAN 18 2017

TNZ002-004-019-021-049-052-054-088>092-181900-
WEST TENNESSEE

CITY           SKY/WX    TMP DP  RH WIND       PRES   REMARKS
MEMPHIS INTL   CLOUDY    51  42  71 E7        30.17F
NWS MEMPHIS      N/A     49 N/A N/A MISG        N/A
JACKSON        CLOUDY    49  44  83 E5        30.20F
DYERSBURG      CLOUDY    45  39  81 SE5       30.21F
UNION CITY     CLOUDY    45  45 100 CALM      30.19F
PARIS          CLOUDY    43  39  87 CALM      30.20F
HUNTINGDON     CLOUDY    46  43  87 E5        30.19F
$$

TNZ008-025-027-028-033-062-065-066-181900-
NORTH MIDDLE TENNESSEE

CITY           SKY/WX    TMP DP  RH WIND       PRES   REMARKS
NASHVILLE      CLOUDY    48  39  71 E3        30.21F
PORTLAND       CLOUDY    46  39  76 VRB3      30.21F
CLARKSVILLE    CLOUDY    47  39  74 VRB3      30.21F
SMYRNA         CLOUDY    47  42  83 VRB5      30.22F
GALLATIN       CLOUDY    48  39  71 CALM      30.24F
CROSSVILLE     CLOUDY    49  40  71 VRB5      30.18F
$$

TNZ061-075-076-078-094-096-097-181900-
SOUTH MIDDLE TENNESSEE

CITY           SKY/WX    TMP DP  RH WIND       PRES   REMARKS
FAYETTEVILLE   PTSUNNY   52  46  82 NE7       30.16F
TULLAHOMA      MOSUNNY   52  43  71 CALM      30.18F
WINCHESTER     SUNNY     52  45  76 NE3       30.18F
MCMINNVILLE    CLOUDY    48  43  81 VRB3      30.19F
COLUMBIA       CLOUDY    50  50 100 NE3       30.17F
SHELBYVILLE    CLOUDY    50  45  81 CALM      30.20F
$$

TNZ017-018-042-046-047-181900-
NORTHEAST TENNESSEE

CITY           SKY/WX    TMP DP  RH WIND       PRES   REMARKS
TRI CITIES     MOSUNNY   57  39  51 W12       30.12F
ELIZABETHTON   SUNNY     57  39  51 W12       30.10F
$$

TNZ012-013-036-069-073-074-181900-
CENTRAL EAST TENNESSEE

CITY           SKY/WX    TMP DP  RH WIND       PRES   REMARKS
KNOXVILLE      PTSUNNY   57  44  62 CALM      30.15F
OAK RIDGE      SUNNY     58  41  53 S3        30.17F
GATLINBURG     MOSUNNY   55  45  67 NW5       30.15F
MORRISTOWN     SUNNY     55  43  62 NW8       30.15F
JACKSBORO      SUNNY     54  41  62 CALM      30.20F
$$

TNZ083-085-099-181900-
SOUTHEAST TENNESSEE

CITY           SKY/WX    TMP DP  RH WIND       PRES   REMARKS
CHATTANOOGA    PTSUNNY   62  45  53 NE6       30.15F
$$

SKY/WX REPORTED AS FAIR MEANS FEW OR NO CLOUDS BELOW
12 THOUSAND FEET.





USA.gov is the U.S. government's official web portal to all federal, state and local government web resources and services.